Back to catalog

STARLINK-3942

AliveCommunicationsVLEO
NORAD 52563·PAYLOAD·🇺🇸 United States

Launched May 13, 2022 from Vandenberg Space Force Base

Loading…

Next Passes (next 24 hours)

TLE

FreshSource: CelesTrak SupGP

Epoch: Sep 14, 2026, 13:12 UTC

1 52563C 22051AG  26257.55048611 -.00016196  00000+0 -46360-3 0  2576
2 52563  53.1601 353.6818 0001173  81.0810 310.8121 15.35391571    10

Track STARLINK-3942 in real time with AllMySat

Download on the App Store